Terug naar catalogus

STARLINK-5785

ActiefCommunicatieVLEO
NORAD 56031·PAYLOAD·🇺🇸 United States

Gelanceerd Mar 24, 2023 vanaf Cape Canaveral Space Force Station

Loading…

Volgende Passages (komende 24 uur)

TLE

VersSource: CelesTrak SupGP

Epoch: Sep 14, 2026, 20:47 UTC

1 56031C 23042AX  26257.86645833  .00055463  00000+0  20090-2 0  2573
2 56031  43.0038  56.6650 0001699 270.7188 312.8709 15.27548254    15

Volg STARLINK-5785 in realtime met AllMySat

Download on the App Store